SCP
0 0 0 0 0 0 0 0 0 0 0 0 0 0 0 0 0 0 0 0 0 0 0 0 0 0 0 0 0 0 0 0 0 0 0 0 0 0 0 0 0 0 0
0 0 0 0 0 0 0 0 0 0 0 0 0 0 0 0 0 0 0 0 0 0 0 0 0 0 0 0 0 0 0 0 0 0 0 0 0 0 0 0 0 0 0
0 0 0 0 0 0 0 0 0 0 0 0 0 0 0 0 0 0 0 0 0 0 0 0 0 0 0 0 0 0 0 0 0 0 0 0 0 0 0 0 0 0 0
0 0 0 0 0 0 0 0 0 0 0 0 0 0 0 0 0 0 0 0 0 0 0 0 0 0 0 0 0 0 0 0 0 0 0 0 0 0 0 0 0 0 0
0 0 0 0 0 0 0 0 0 0 0 0 0 0 0 0 0 0 0 0 0 0 0 0 0 0 0 0 0 0 0 0 0 0 0 0 0 0 0 0 0 0 0
0 0 0 0 0 0 0 0 0 0 0 0 0 0 0 0 0 0 0 0 0 0 0 0 0 0 0 0 0 0 0 0 0 0 0 0 0 0 0 0 0 0 0
0 0 0 0 0 0 0 0 0 0 0 0 0 0 0 0 0 0 0 0 0 0 0 0 0 0 0 0 0 0 0 0 0 0 0 0 0 0 0 0 0 0 0
0 0 0 0 0 0 0 0 0 0 0 0 0 0 0 0 0 0 0 0 0 0 0 0 0 0 0 0 0 0 0 0 0 0 0 0 0 0 0 0 0 0 0
0 0 0 0 0 0 0 0 0 0 0 0 0 0 0 0 0 0 0 0 0 0 0 0 0 0 0 0 0 0 0 0 0 0 0 0 0 0 0 0 0 0 0
0 0 0 0 0 0 0 0 0 0 0 0 0 0 0 0 0 0 0 0 0 0 0 0 0 0 0 0 0 0 0 0 0 0 0 0 0 0 0 0 0 0 0
0 0 0 0 0 0 0 0 0 0 0 0 0 0 0 0 0 0 0 0 0 0 0 0 0 0 0 0 0 0 0 0 0 0 0 0 0 0 0 0 0 0 0
0 0 0 0 0 0 0 0 0 0 0 0 0 0 0 0 0 0 0 0 0 0 0 0 0 0 0 0 0 0 0 0 0 0 0 0 0 0 0 0 0 0 0
0 0 0 0 0 0 0 0 0 0 0 0 0 0 0 0 0 0 0 0 0 0 0 0 0 0 0 0 0 0 0 0 0 0 0 0 0 0 0 0 0 0 0
0 0 0 0 0 0 0 0 0 0 0 0 0 0 0 0 0 0 0 0 0 0 0 0 0 0 0 0 0 0 0 0 0 0 0 0 0 0 0 0 0 0 0
0 0 0 0 0 0 0 0 0 0 0 0 0 0 0 0 0 0 0 0 0 0 0 0 0 0 0 0 0 0 0 0 0 0 0 0 0 0 0 0 0 0 0
0 0 0 0 0 0 0 0 0 0 0 0 0 0 0 0 0 0 0 0 0 0 0 0 0 0 0 0 0 0 0 0 0 0 0 0 0 0 0 0 0 0 0
0 0 0 0 0 0 0 0 0 0 0 0 0 0 0 0 0 0 0 0 0 0 0 0 0 0 0 0 0 0 0 0 0 0 0 0 0 0 0 0 0 0 0
0 0 0 0 0 0 0 0 0 0 0 0 0 0 0 0 0 0 0 0 0 0 0 0 0 0 0 0 0 0 0 0 0 0 0 0 0 0 0 0 0 0 0
0 0 0 0 0 0 0 0 0 0 0 0 0 -0 -0 0 0 0 0 0 0 0 0 0 0 0 0 0 0 0 0 0 0 0 0 0 0 0 0 0 0 0 0
0 0 0 0 0 0 0 0 0 0 0 0 0 -0 -0 -0 0 0 0 0 0 0 0 0 0 0 0 0 0 0 0 0 0 0 0 0 0 0 0 0 0 0 0
0 0 0 -0 0 0 0 0 0 0 0 0 0 0 -0 -0 -0 0 0 0 0 0 0 0 0 0 0 0 0 0 0 0 0 0 0 0 0 0 0 0 0 0 0
0 0 -0 -0 -0 0 0 0 0 0 0 0 0 0 0 -0 0 0 0 0 0 0 0 0 0 0 0 0 0 0 0 0 0 0 0 0 0 0 0 0 0 0 0
0 0 0 -0 -0 0 0 0 0 0 0 0 0 0 0 0 0 0 0 0 0 0 0 0 0 0 0 0 0 0 0 0 0 0 0 0 0 0 0 0 0 0 0
0 0 0 0 0 0 0 0 0 0 0 0 0 0 0 0 0 0 0 0 0 0 0 0 0 0 0 0 0 0 0 0 0 0 0 0 0 0 0 0 0 0 0
0 0 0 0 0 0 0 0 0 0 0 0 0 0 0 0 0 0 0 0 0 0 0 0 0 0 0 0 0 0 0 0 0 0 0 0 0 0 0 0 0 0 0
0 0 0 0 0 0 0 0 0 0 0 0 0 0 0 0 0 0 0 0 0 0 0 0 0 0 0 0 0 0 0 0 0 0 0 0 0 0 0 0 0 0 0
Wind_Speed
2 3 4 3 3 3 3 3 3 2 1 1 1 1 1 2 2 3 4 4 4 4 3 3 3 3 3 3 4 3 4 3 4 3 4 3 2 2 2 2 2 3 3
2 3 3 3 3 3 3 3 2 2 2 2 1 0 0 1 1 2 3 4 4 4 4 4 3 3 3 4 4 4 3 3 3 3 3 3 3 3 3 2 2 3 4
1 2 3 3 3 3 2 2 2 2 2 2 1 1 1 1 1 2 2 3 4 4 4 4 3 3 3 3 4 4 4 3 3 2 2 2 3 4 2 2 2 3 3
1 2 2 2 2 3 2 2 2 2 2 2 2 2 1 0 1 1 1 3 3 3 3 4 3 3 3 4 4 4 3 3 3 3 2 2 3 3 5 3 3 4 4
1 1 1 1 2 2 3 2 2 3 2 2 2 1 1 1 1 1 2 2 2 3 4 4 4 4 3 3 4 4 4 3 3 3 3 3 3 2 4 6 5 5 4
1 1 1 2 2 2 3 3 3 3 3 2 2 2 2 2 2 2 2 2 2 3 4 4 4 4 3 3 3 3 4 3 3 3 3 3 3 3 4 5 6 6 5
1 1 2 2 3 3 3 3 3 3 3 3 2 2 1 1 2 2 1 1 1 2 3 3 3 3 3 3 3 3 3 3 3 3 2 3 3 3 4 5 6 7 5
0 1 1 2 2 2 2 2 2 2 3 3 2 2 2 1 1 1 1 1 1 1 2 2 3 3 3 3 3 2 2 3 3 4 3 3 3 3 4 4 6 8 6
1 1 1 1 1 1 1 1 1 2 2 2 2 2 2 2 2 2 1 1 1 2 2 2 3 3 3 3 3 2 2 2 2 3 3 3 3 3 3 3 4 5 8
1 0 0 1 1 0 0 1 1 1 1 2 2 2 2 2 2 2 2 2 2 2 2 2 3 3 3 3 3 3 3 3 3 3 3 4 3 3 3 3 4 4 6
2 1 1 1 0 0 0 0 1 1 1 1 2 2 2 1 1 1 2 2 2 2 2 2 3 3 3 3 2 3 3 3 4 4 4 4 4 4 4 3 3 4 4
2 2 2 1 1 0 0 0 0 1 1 1 1 1 2 2 2 2 2 2 2 2 2 3 3 3 3 3 3 3 3 3 4 4 4 5 5 5 4 4 4 4 5
2 2 2 2 1 1 1 1 0 0 1 1 1 1 2 2 2 2 2 2 2 2 3 3 3 3 3 3 3 3 3 3 4 4 5 5 5 5 5 5 5 5 6
3 3 2 2 2 2 2 1 1 0 0 0 0 1 1 1 2 2 2 2 2 2 2 2 2 3 3 3 3 3 3 3 4 4 4 5 5 5 5 5 5 6 6
3 3 3 3 3 2 2 2 1 1 1 1 1 1 1 1 1 2 2 2 2 2 2 2 3 3 3 3 3 3 3 4 4 4 4 5 6 7 7 6 6 6 6
4 4 4 3 3 3 3 2 2 1 1 1 1 1 1 1 1 1 2 2 2 2 2 2 3 3 3 5 7 5 4 4 5 5 5 5 5 7 10 11 11 10 8
5 4 4 4 4 3 3 3 3 2 2 2 1 1 0 1 1 2 2 2 2 2 2 3 3 3 4 7 7 7 5 5 5 5 5 5 5 6 6 9 11 10 11
4 4 4 3 3 3 3 2 2 2 2 2 1 1 1 1 1 1 2 2 2 2 3 3 3 3 4 7 7 7 5 5 5 5 5 6 6 7 8 8 8 7 7
4 4 3 3 3 2 2 2 2 2 2 2 2 2 1 2 2 2 2 2 2 3 3 3 3 4 5 7 8 7 4 4 5 5 5 6 6 10 12 9 9 9 8
3 3 2 2 2 2 2 2 3 2 3 3 3 2 2 2 3 3 3 2 3 3 3 4 3 4 4 7 8 8 4 5 5 5 5 7 9 11 12 8 8 9 9
2 2 2 2 3 2 3 3 3 4 4 3 2 2 2 3 3 2 2 2 3 3 3 4 4 4 4 7 8 8 4 5 5 5 5 5 11 13 13 11 7 10 10
3 2 2 3 2 2 3 4 5 4 2 2 3 3 3 2 2 2 2 2 2 3 4 4 4 3 3 5 7 9 8 7 6 6 5 6 12 13 13 10 11 13 11
4 3 3 3 2 2 4 5 5 3 2 3 3 3 3 2 2 2 3 2 2 3 3 3 4 4 3 4 7 8 9 10 6 5 9 11 12 12 9 10 12 9 5
4 3 3 4 4 3 4 5 3 3 3 3 3 3 3 3 2 2 3 3 3 4 4 4 4 4 4 4 3 4 5 6 6 5 6 9 10 9 8 7 6 4 4
4 4 5 6 6 4 4 4 3 3 3 4 3 3 3 3 3 3 3 4 4 4 4 4 4 4 5 6 8 6 4 4 5 5 3 3 4 4 4 4 4 4 4
4 4 5 6 5 4 5 4 3 4 4 4 4 3 3 3 3 3 3 6 6 7 8 7 6 5 7 9 9 10 10 10 9 5 3 4 4 4 5 5 5 4 4
Wind_Direction
59 52 50 49 49 43 43 46 45 30 28 36 50 50 32 34 37 32 25 23 21 19 27 20 10 7 10 1 350 343 336 339 334 322 320 313 303 340 338 344 346 350 352
56 56 51 44 44 40 26 33 32 31 26 14 16 115 119 59 50 36 27 20 18 14 18 17 7 4 3 3 356 351 341 342 355 337 321 321 322 346 323 332 348 347 343
83 59 48 37 35 34 18 13 23 34 27 23 33 41 59 49 38 23 14 14 17 17 15 11 9 3 5 358 351 350 350 338 340 357 338 320 306 321 308 324 336 342 330
74 63 51 31 24 13 9 20 27 36 24 22 38 32 36 358 347 16 13 12 16 15 17 14 13 14 11 6 357 1 354 347 337 339 341 316 308 308 308 316 338 336 326
112 81 77 47 29 20 15 16 30 36 33 29 33 31 14 7 19 32 30 21 14 17 16 20 20 21 16 10 4 2 7 5 354 349 336 328 320 314 290 300 316 321 313
144 91 70 67 50 37 22 15 25 27 27 36 35 42 34 20 18 24 31 24 15 13 17 22 22 17 13 11 9 7 9 5 0 354 351 339 324 322 307 296 304 303 305
94 81 66 50 43 35 26 18 27 22 19 27 26 26 18 27 21 1 7 10 10 10 4 9 13 11 6 8 10 11 3 0 357 349 340 334 325 319 307 302 302 300 295
78 103 96 83 64 38 23 21 27 21 22 22 16 15 10 13 6 6 357 345 353 7 11 10 10 5 358 358 3 3 349 356 356 344 340 332 323 321 313 304 306 305 299
137 103 84 83 79 60 38 21 21 20 19 11 12 17 18 20 12 3 1 350 0 2 13 8 1 357 350 350 352 353 345 349 341 328 325 320 316 314 313 311 304 299 301
167 166 142 113 96 106 66 44 24 6 11 12 3 6 11 16 19 23 21 19 14 8 1 360 353 348 349 350 350 347 339 340 330 321 322 320 315 315 318 311 308 299 292
200 205 200 169 159 111 85 58 19 2 5 9 10 4 353 6 25 18 10 8 6 355 350 343 340 337 336 339 340 334 330 328 325 324 326 325 323 318 318 316 313 306 298
205 204 204 203 206 199 203 276 323 335 338 357 11 4 359 7 15 7 4 4 356 352 346 343 339 336 333 331 327 322 327 330 331 327 325 321 321 319 317 317 314 308 302
228 222 216 208 212 220 231 226 243 308 336 1 9 358 353 356 353 350 352 357 355 349 346 341 333 327 322 318 317 319 326 326 322 320 319 318 319 318 319 319 314 310 310
237 225 217 213 211 215 225 221 228 246 284 315 327 320 320 335 346 350 351 350 345 335 331 328 322 322 320 318 321 328 328 323 319 318 317 317 315 312 313 312 309 307 305
240 233 228 221 216 220 224 218 220 229 253 271 281 281 306 356 358 351 345 344 342 332 325 325 326 326 320 319 324 323 319 317 314 315 314 313 313 313 313 310 310 309 303
238 236 234 227 223 223 226 221 227 230 222 227 245 274 320 353 337 332 336 335 328 326 329 326 326 324 321 326 325 322 316 311 307 307 305 302 301 312 314 311 310 307 303
245 238 230 227 226 222 216 214 218 213 214 224 235 250 288 308 308 318 330 322 318 322 322 318 320 314 316 321 321 323 317 310 303 302 303 306 311 309 305 305 305 305 303
237 238 233 230 225 218 213 208 199 200 210 222 237 246 261 281 305 310 303 304 308 309 306 309 311 309 312 316 318 322 320 309 303 300 299 301 304 307 309 305 302 298 299
229 228 223 223 216 212 202 189 208 207 208 221 230 230 228 253 271 274 282 294 304 304 304 302 305 304 307 311 314 318 314 307 307 306 305 303 300 305 310 308 306 306 305
238 227 221 209 208 208 179 187 216 218 226 227 229 224 219 233 248 260 275 292 291 289 301 302 303 298 300 304 309 312 307 304 306 306 305 302 303 306 310 308 304 303 307
242 223 213 215 213 191 175 203 218 229 233 224 219 218 223 232 243 257 272 286 287 295 296 297 301 298 295 299 304 306 307 301 301 301 303 304 308 310 311 312 306 303 308
252 236 230 242 228 186 185 216 233 236 221 206 212 222 226 230 230 236 259 264 265 275 282 289 295 293 295 296 300 301 300 300 296 295 297 299 306 310 312 312 310 312 313
247 236 225 238 244 216 199 223 239 221 205 207 219 225 225 228 226 225 239 253 253 257 267 273 282 290 292 295 298 299 300 302 302 296 297 304 309 314 315 317 317 317 310
246 239 232 238 247 236 222 226 227 204 196 214 225 218 215 229 233 231 229 233 239 249 260 268 275 285 288 289 294 298 303 305 306 304 303 306 309 312 316 317 317 317 311
245 230 230 239 245 236 232 230 213 193 204 218 222 218 217 221 232 237 235 239 240 239 253 257 262 273 280 282 296 304 303 303 298 314 311 308 311 312 311 313 314 313 314
241 237 237 241 243 234 236 231 210 194 198 216 219 216 217 220 225 242 272 261 259 269 270 270 272 275 279 294 297 302 306 309 312 319 305 301 302 302 305 308 309 308 306